This is the latest recevied weather packets stored in our database for station/object N7MLR. If no packets are shown the sender has not sent any weather packets the latest 10 day(s).
| Time | Temp. | Humidity | Pressure | Rain* | Wind** | Luminosity | Snow |
|---|---|---|---|---|---|---|---|
| 1778161898 | 13.33° C | 95% | 1017.7 hPa | 0 mm | - | 38 W/m² | - |
| 1778161594 | 13.89° C | 95% | 1017.8 hPa | 0 mm | - | 17 W/m² | - |
| 1778161290 | 13.89° C | 95% | 1017.9 hPa | 0 mm | - | 18 W/m² | - |
| 1778160986 | 13.89° C | 95% | 1017.8 hPa | 0 mm | - | 16 W/m² | - |
| 1778160684 | 13.89° C | 95% | 1017.4 hPa | 0 mm | - | 19 W/m² | - |
| 1778160380 | 13.89° C | 94% | 1017.1 hPa | 0 mm | - | 19 W/m² | - |
| 1778160076 | 13.89° C | 93% | 1017.2 hPa | 0 mm | - | 42 W/m² | - |
| 1778159773 | 13.89° C | 93% | 1017.5 hPa | 0 mm | - | 33 W/m² | - |
| 1778159471 | 13.89° C | 93% | 1017.5 hPa | 0 mm | - | 18 W/m² | - |
| 1778159168 | 13.89° C | 93% | 1017.3 hPa | 0 mm | - | 18 W/m² | - |
| 1778158866 | 13.89° C | 93% | 1017.3 hPa | 0 mm | - | 19 W/m² | - |
| 1778158564 | 13.89° C | 93% | 1017.1 hPa | 0 mm | - | 16 W/m² | - |
| 1778158261 | 14.44° C | 93% | 1016.9 hPa | 0 mm | - | 10 W/m² | - |
| 1778157957 | 14.44° C | 92% | 1017.3 hPa | 0 mm | - | 7 W/m² | - |
| 1778157656 | 14.44° C | 92% | 1017 hPa | 0 mm | - | 4 W/m² | - |
| 1778157353 | 14.44° C | 91% | 1016.6 hPa | 0 mm | - | 4 W/m² | - |
| 1778157050 | 14.44° C | 91% | 1016.9 hPa | 0 mm | - | 8 W/m² | - |
| 1778156745 | 14.44° C | 91% | 1016.4 hPa | 0 mm | - | 7 W/m² | - |
| 1778156441 | 14.44° C | 91% | 1016.2 hPa | 0 mm | - | 6 W/m² | - |
| 1778156137 | 14.44° C | 91% | 1016.1 hPa | 0 mm | - | 3 W/m² | - |
| 1778155833 | 14.44° C | 91% | 1016.3 hPa | 0 mm | - | 3 W/m² | - |
| 1778155529 | 14.44° C | 91% | 1015.8 hPa | 0 mm | - | 1 W/m² | - |
| 1778155227 | 14.44° C | 91% | 1015.7 hPa | 0 mm | - | 0 W/m² | - |
| 1778154923 | 14.44° C | 90% | 1015.7 hPa | 0 mm | - | 0 W/m² | - |
| 1778154618 | 14.44° C | 90% | 1015.6 hPa | 0 mm | - | 0 W/m² | - |
* Rain latest hour (hover to see other rain measurements)
** Current wind speed in m/s (hover to see current wind gust speed)